Weather History for K3I2 - January, 2012

Change the Weather History Date:

Sunday, January 29, 2012

  Actual Average (KHTS) Record (KHTS)
Temperature  
Mean Temperature 36 °F 34 °F  
Max Temperature 50 °F 43 °F 72 °F (1903)
Min Temperature 23 °F 26 °F -8 °F (1963)
Degree Days  
Heating Degree Days 28 31  
Month to date heating degree days 905  
Since 1 July heating degree days 2660  
Cooling Degree Days 0 0  
Month to date cooling degree days 0  
Year to date cooling degree days 0  
Moisture  
Dew Point 20 °F    
Average Humidity 57    
Maximum Humidity 93    
Minimum Humidity 32    
Precipitation  
Precipitation 0.00 in 0.10 in 1.65 in (1932)
Month to date precipitation 2.76  
Year to date precipitation 2.76  
Sea Level Pressure  
Sea Level Pressure 30.21 in    
Wind  
Wind Speed 5 mph (WSW)    
Max Wind Speed 22 mph    
Max Gust Speed 34 mph    
Visibility 10 miles    
Events      
T = Trace of Precipitation, MM = Missing Value Source: NWS Daily Summary

Daily Weather History Graph

Daily Weather History Graph

Search for Another Location

Airport or City:

Trip Planner

Search our weather history database for the weather conditions in past years. The results will help you decide how hot, cold, wet, or windy it might be!

Date:

Astronomy

Jan. 29, 2012 Rise Set
Actual Time 7:37 AM EST 5:45 PM EST
Civil Twilight 7:09 AM EST 6:14 PM EST
Nautical Twilight 6:37 AM EST 6:46 PM EST
Astronomical Twilight 6:05 AM EST 7:17 PM EST
Moon 10:32 AM EST (1/29) No Moon Set
Length of Visible Light 11h 04m
Length of Day
10h 08m
Waxing Crescent, 36% of the Moon is Illuminated
Jan 29
Waxing Crescent
Jan 30
First Quarter
Feb 7
Full
Feb 14
Last Quarter
Feb 21
New

Hourly Weather History & Observations

Time (EST) Temp. Windchill Dew Point Humidity Pressure Visibility Wind Dir Wind Speed Gust Speed Precip Events Conditions
12:15 AM 26.6 °F - 19.4 °F 74% 30.28 in 10.0 mi Calm Calm - N/A   Clear
12:35 AM 28.4 °F - 19.4 °F 69% 30.28 in 10.0 mi Calm Calm - N/A   Clear
1:15 AM 26.6 °F - 21.2 °F 80% 30.27 in 10.0 mi Calm Calm - N/A   Clear
1:35 AM 26.6 °F 22.6 °F 21.2 °F 80% 30.28 in 10.0 mi WSW 3.5 mph - N/A   Clear
1:55 AM 26.6 °F - 19.4 °F 74% 30.29 in 10.0 mi Calm Calm - N/A   Clear
2:15 AM 26.6 °F - 19.4 °F 74% 30.28 in 10.0 mi Calm Calm - N/A   Clear
2:35 AM 26.6 °F - 19.4 °F 74% 30.28 in 10.0 mi Calm Calm - N/A   Clear
2:55 AM 26.6 °F - 19.4 °F 74% 30.28 in 10.0 mi Calm Calm - N/A   Clear
3:15 AM 24.8 °F - 21.2 °F 86% 30.28 in 10.0 mi Calm Calm - N/A   Clear
3:35 AM 26.6 °F - 21.2 °F 80% 30.29 in 10.0 mi Calm Calm - N/A   Clear
3:55 AM 24.8 °F - 21.2 °F 86% 30.29 in 10.0 mi Calm Calm - N/A   Clear
4:15 AM 24.8 °F - 21.2 °F 86% 30.29 in 10.0 mi Calm Calm - N/A   Clear
4:35 AM 24.8 °F - 21.2 °F 86% 30.29 in 10.0 mi Calm Calm - N/A   Clear
4:55 AM 23.0 °F - 21.2 °F 93% 30.29 in 10.0 mi Calm Calm - N/A   Clear
5:15 AM 26.6 °F - 21.2 °F 80% 30.29 in 10.0 mi Calm Calm - N/A   Clear
5:35 AM 24.8 °F - 19.4 °F 80% 30.28 in 10.0 mi Calm Calm - N/A   Clear
5:55 AM 26.6 °F 22.6 °F 19.4 °F 74% 30.27 in 10.0 mi South 3.5 mph - N/A   Clear
6:15 AM 28.4 °F 24.6 °F 19.4 °F 69% 30.27 in 10.0 mi South 3.5 mph - N/A   Clear
6:35 AM 28.4 °F 24.6 °F 19.4 °F 69% 30.27 in 10.0 mi South 3.5 mph - N/A   Clear
7:15 AM 28.4 °F 23.3 °F 19.4 °F 69% 30.27 in 10.0 mi SSW 4.6 mph - N/A   Clear
7:35 AM 30.2 °F 26.7 °F 19.4 °F 64% 30.26 in 10.0 mi SSW 3.5 mph - N/A   Clear
7:55 AM 28.4 °F 24.6 °F 19.4 °F 69% 30.26 in 10.0 mi SSW 3.5 mph - N/A   Clear
8:15 AM 30.2 °F 26.7 °F 19.4 °F 64% 30.26 in 10.0 mi SSW 3.5 mph - N/A   Clear
8:35 AM 32.0 °F 28.7 °F 19.4 °F 60% 30.25 in 10.0 mi South 3.5 mph - N/A   Clear
8:55 AM 32.0 °F 28.7 °F 21.2 °F 64% 30.24 in 10.0 mi SSW 3.5 mph - N/A   Clear
9:15 AM 32.0 °F 26.4 °F 21.2 °F 64% 30.24 in 10.0 mi SSW 5.8 mph - N/A   Clear
9:35 AM 33.8 °F 27.0 °F 21.2 °F 60% 30.24 in 10.0 mi SW 8.1 mph - N/A   Clear
9:55 AM 35.6 °F 28.6 °F 21.2 °F 56% 30.24 in 10.0 mi SW 9.2 mph - N/A   Clear
10:15 AM 35.6 °F 27.1 °F 21.2 °F 56% 30.24 in 10.0 mi SW 12.7 mph 21.9 mph N/A   Clear
10:35 AM 37.4 °F 28.5 °F 19.4 °F 48% 30.24 in 10.0 mi SW 15.0 mph 25.3 mph N/A   Clear
10:55 AM 37.4 °F 28.9 °F 19.4 °F 48% 30.23 in 10.0 mi SW 13.8 mph 19.6 mph N/A   Clear
11:15 AM 39.2 °F 32.0 °F 19.4 °F 45% 30.22 in 10.0 mi SW 11.5 mph 19.6 mph N/A   Clear
11:35 AM 42.8 °F 35.8 °F 21.2 °F 42% 30.21 in 10.0 mi WSW 13.8 mph 20.7 mph N/A   Clear
11:55 AM 42.8 °F 34.8 °F 19.4 °F 39% 30.19 in 10.0 mi SW 17.3 mph 25.3 mph N/A   Clear
12:15 PM 44.6 °F 38.8 °F 21.2 °F 39% 30.18 in 10.0 mi WSW 11.5 mph 26.5 mph N/A   Clear
12:35 PM 44.6 °F 37.2 °F 21.2 °F 39% 30.16 in 10.0 mi SW 17.3 mph 25.3 mph N/A   Clear
12:55 PM 44.6 °F 36.6 °F 21.2 °F 39% 30.14 in 10.0 mi SW 19.6 mph 27.6 mph N/A   Clear
1:15 PM 44.6 °F 37.2 °F 19.4 °F 37% 30.12 in 10.0 mi SW 17.3 mph 29.9 mph N/A   Clear
1:35 PM 46.4 °F 39.2 °F 21.2 °F 37% 30.11 in 10.0 mi SW 18.4 mph 28.8 mph N/A   Clear
1:55 PM 46.4 °F 40.1 °F 21.2 °F 37% 30.10 in 10.0 mi WSW 15.0 mph 27.6 mph N/A   Clear
2:15 PM 46.4 °F 39.5 °F 19.4 °F 34% 30.08 in 10.0 mi SW 17.3 mph 26.5 mph N/A   Clear
2:35 PM 48.2 °F - 21.2 °F 34% 30.07 in 10.0 mi SW 16.1 mph 23.0 mph N/A   Clear
2:55 PM 46.4 °F 39.2 °F 21.2 °F 37% 30.06 in 10.0 mi SW 18.4 mph 29.9 mph N/A   Clear
3:15 PM 48.2 °F - 21.2 °F 34% 30.06 in 10.0 mi SW 15.0 mph 29.9 mph N/A   Clear
3:35 PM 46.4 °F 39.5 °F 21.2 °F 37% 30.05 in 10.0 mi WSW 17.3 mph 28.8 mph N/A   Clear
3:55 PM 50.0 °F - 21.2 °F 32% 30.04 in 10.0 mi WSW 15.0 mph 23.0 mph N/A   Clear
4:15 PM 46.4 °F 38.5 °F 17.6 °F 32% 30.04 in 10.0 mi WSW 21.9 mph 34.5 mph N/A   Clear
4:35 PM 46.4 °F 40.4 °F 17.6 °F 32% 30.06 in 10.0 mi West 13.8 mph 28.8 mph N/A   Clear
4:55 PM 46.4 °F 39.5 °F 19.4 °F 34% 30.07 in 10.0 mi WSW 17.3 mph 25.3 mph N/A   Clear
5:15 PM 44.6 °F 38.1 °F 19.4 °F 37% 30.08 in 10.0 mi West 13.8 mph 31.1 mph N/A   Clear
5:35 PM 44.6 °F 39.2 °F 19.4 °F 37% 30.09 in 10.0 mi West 10.4 mph 31.1 mph N/A   Clear
5:55 PM 44.6 °F 39.2 °F 19.4 °F 37% 30.10 in 10.0 mi West 10.4 mph 28.8 mph N/A   Clear
6:15 PM 42.8 °F 39.3 °F 24.8 °F 49% 30.14 in 10.0 mi NNW 5.8 mph 19.6 mph N/A   Scattered Clouds
6:35 PM 37.4 °F 30.3 °F 26.6 °F 65% 30.17 in 10.0 mi WNW 10.4 mph 20.7 mph N/A   Clear
6:55 PM 35.6 °F 29.9 °F 26.6 °F 70% 30.20 in 10.0 mi WNW 6.9 mph 17.3 mph N/A   Clear
7:15 PM 35.6 °F 28.6 °F 23.0 °F 60% 30.22 in 10.0 mi WNW 9.2 mph 16.1 mph N/A   Clear
7:35 PM 35.6 °F 29.9 °F 21.2 °F 56% 30.23 in 10.0 mi WNW 6.9 mph - N/A   Clear
7:55 PM 35.6 °F 29.2 °F 19.4 °F 52% 30.24 in 10.0 mi WNW 8.1 mph 16.1 mph N/A   Clear
8:15 PM 33.8 °F 30.8 °F 17.6 °F 52% 30.25 in 10.0 mi WNW 3.5 mph - N/A   Clear
8:35 PM 33.8 °F 26.4 °F 15.8 °F 48% 30.26 in 10.0 mi WNW 9.2 mph - N/A   Scattered Clouds
9:15 PM 33.8 °F 28.6 °F 17.6 °F 52% 30.27 in 10.0 mi West 5.8 mph - N/A   Clear
9:35 PM 32.0 °F - 17.6 °F 55% 30.28 in 10.0 mi Calm Calm - N/A   Clear
9:55 PM 32.0 °F - 17.6 °F 55% 30.29 in 10.0 mi Calm Calm - N/A   Clear
10:15 PM 32.0 °F - 17.6 °F 55% 30.29 in 10.0 mi Calm Calm - N/A   Clear
10:35 PM 32.0 °F - 17.6 °F 55% 30.30 in 10.0 mi Calm Calm - N/A   Clear
10:55 PM 28.4 °F - 19.4 °F 69% 30.31 in 10.0 mi Calm Calm - N/A   Clear
11:15 PM 28.4 °F - 19.4 °F 69% 30.32 in 10.0 mi Calm Calm - N/A   Clear
11:35 PM 28.4 °F - 19.4 °F 69% 30.32 in 10.0 mi Calm Calm - N/A   Clear
11:55 PM 28.4 °F - 19.4 °F 69% 30.32 in 10.0 mi Calm Calm - N/A   Clear